Location: *
(45.9500°N, 9.0833°E)
Time: 15:04:25
(UTC+00:00)

MOS 1 - Pass Details

Date: 03 March 2021
Orbit: 878 x 892 km, 99.1° (Epoch: 14 April)

Event Time Altitude Azimuth Distance (km) Brightness Sun altitude
Exits shadow 19:26:04 32° 165° (SSE) 1,485 5.2 -23.7°
Maximum altitude 19:28:53 89° 251° (WSW) 895 4.2 -24.2°
Drops below altitude 10° 19:34:36 10° 345° (NNW) 2,558 7.1 -25.1°
Sets 19:37:00 0° 346° (NNW) 3,499 7.8 -25.5°
